Simultaneous Nadir Overpasses (SNOs) Predictions

Prediction of SNOs between AQUA and NOAA-19 Satellite Orbit:

Table of predicted SNOs for the next 14.0 days since TLE Epoch: 8/17/2013
Index Date (AQUA) Time (AQUA) Lat,Lon (AQUA) SZA (AQUA ) Date (NOAA-19) Time (NOAA-19) Lat,Lon (NOAA-19) SZA (NOAA-19 ) Distance(km) Time Diff (sec)
1 08/17/2013 07:17:59 -57.30, -98.49 135.53 08/17/2013 07:17:54 -57.30, -98.47 135.53 1.85 5
2 08/19/2013 12:02:36 -58.49,-170.27 133.73 08/19/2013 12:02:31 -58.50,-170.29 133.73 1.19 5
3 08/21/2013 16:46:49 -58.30, 118.78 133.17 08/21/2013 16:46:43 -58.29, 118.80 133.17 1.20 6
4 08/23/2013 21:31:15 -58.93, 47.32 131.83 08/23/2013 21:31:09 -58.93, 47.32 131.83 0.15 6
5 08/26/2013 02:15:36 -59.23, -23.94 130.79 08/26/2013 02:15:30 -59.23, -23.94 130.79 0.06 6
6 08/28/2013 06:59:53 -59.32, -95.06 129.93 08/28/2013 06:59:47 -59.31, -95.04 129.93 1.00 6




NCC Satellite Simultaneous Nadir Overpasses (SNOs) Prediction Service
